(29) Amphitrite
ephemeris date magn radius delta ra dec elong phase
Today5 Dec 202410.62.472 AU2.045 AU10h13m+17°02'103.8°22.8°
Opposition12 Feb 20259.22.526 AU1.541 AU09h52m+18°37'174.6°2.1°
(29) Amphitrite - 2024-12-05
astro.vanbuitenen.nl


 
-1 year
-1 month
-1 day
Now
+1 day
+1 month
+1 year

The interactive orbit chart above shows the body's path through the solar system and its position at the given date. Green and blue lines are shown perpendicular to the ecliptic plane: Green if the path is above the ecliptic plane, blue if it is below. (Left-click and drag to rotate the view; Right-click and drag to move the view; Use scroll wheel to zoom in our out.)

The orbital elements of Amphitrite are:

            e (Eccentricity)                : 0.0736232
            a (Semimajor axis)              : 2.5544444
            i (Inclination)                 : 6.07722
            Ω (Longitude of ascending node) : 356.26097
            ω (Argument of perihelion)      : 62.00528
            M (Mean anomaly)                : 48.39596
            Epoch                           : 2024 Oct 17

            L (Longitude of perihelion)     : 58.13221
            B (Latitude of perihelion)      : 5.36391
            P (Orbital period in years)     : 4.08            
        

The light curve chart below shows the estimated development of the minor planet's magnitude.


The all-sky chart below shows the path of the minor planet over the same period as the light curve. The current position is marked yellow.





The following chart shows the path of the minor planet in the next few days. The field of view is optimized for (~10x50) binoculars and finderscopes. A more printer-friendly version of the same chart can be found below.




Ephemerides:
Date       Time       RA (2000)    DEC (2000)    delta   radius  elong  phase   PA    magn
2024-12-05 00:00 UT   10 13 19.3   +17 02 47     2.045    2.472  103.8   22.8   290   10.6 
2024-12-05 03:33 UT   10 13 24.9   +17 02 24     2.043    2.472  103.9   22.8   290   10.6 
2024-12-06 00:00 UT   10 13 56.4   +17 00 15     2.033    2.473  104.6   22.7   289   10.6 
2024-12-07 00:00 UT   10 14 32.0   +16 57 50     2.021    2.474  105.5   22.6   289   10.6 
2024-12-08 00:00 UT   10 15 06.2   +16 55 33     2.009    2.474  106.4   22.5   289   10.5 
2024-12-09 00:00 UT   10 15 38.9   +16 53 23     1.997    2.475  107.2   22.3   289   10.5 
2024-12-10 00:00 UT   10 16 10.1   +16 51 20     1.986    2.476  108.1   22.2   289   10.5 
2024-12-11 00:00 UT   10 16 39.9   +16 49 25     1.974    2.476  109.0   22.1   289   10.5 
2024-12-12 00:00 UT   10 17 08.0   +16 47 38     1.963    2.477  109.9   21.9   289   10.5 
2024-12-13 00:00 UT   10 17 34.7   +16 45 58     1.951    2.478  110.8   21.8   289   10.5 
2024-12-14 00:00 UT   10 17 59.8   +16 44 26     1.940    2.479  111.7   21.7   289   10.4 
2024-12-15 00:00 UT   10 18 23.3   +16 43 02     1.928    2.479  112.6   21.5   289   10.4 
2024-12-16 00:00 UT   10 18 45.3   +16 41 46     1.917    2.480  113.5   21.3   289   10.4 
2024-12-17 00:00 UT   10 19 05.6   +16 40 38     1.906    2.481  114.5   21.2   289   10.4 
2024-12-18 00:00 UT   10 19 24.3   +16 39 38     1.895    2.482  115.4   21.0   288   10.4 
2024-12-19 00:00 UT   10 19 41.3   +16 38 46     1.884    2.482  116.4   20.8   288   10.4 
2024-12-20 00:00 UT   10 19 56.7   +16 38 03     1.873    2.483  117.3   20.6   288   10.3 
2024-12-21 00:00 UT   10 20 10.4   +16 37 27     1.862    2.484  118.3   20.4   288   10.3 
2024-12-22 00:00 UT   10 20 22.4   +16 36 60     1.851    2.485  119.2   20.2   288   10.3 
2024-12-23 00:00 UT   10 20 32.7   +16 36 41     1.841    2.486  120.2   20.0   288   10.3 
2024-12-24 00:00 UT   10 20 41.2   +16 36 31     1.830    2.486  121.2   19.8   288   10.3 
2024-12-25 00:00 UT   10 20 48.0   +16 36 29     1.820    2.487  122.2   19.6   288   10.2 
2024-12-26 00:00 UT   10 20 53.0   +16 36 35     1.810    2.488  123.2   19.3   287   10.2 
2024-12-27 00:00 UT   10 20 56.2   +16 36 50     1.800    2.489  124.2   19.1   287   10.2 
2024-12-28 00:00 UT   10 20 57.7   +16 37 13     1.790    2.489  125.2   18.8   287   10.2 
2024-12-29 00:00 UT   10 20 57.3   +16 37 44     1.780    2.490  126.2   18.6   287   10.2 
2024-12-30 00:00 UT   10 20 55.1   +16 38 24     1.770    2.491  127.2   18.3   287   10.1 
2024-12-31 00:00 UT   10 20 51.1   +16 39 12     1.760    2.492  128.2   18.1   287   10.1 
2025-01-01 00:00 UT   10 20 45.3   +16 40 08     1.751    2.492  129.3   17.8   286   10.1 
2025-01-02 00:00 UT   10 20 37.6   +16 41 12     1.742    2.493  130.3   17.5   286   10.1 
2025-01-03 00:00 UT   10 20 28.1   +16 42 24     1.732    2.494  131.4   17.2   286   10.1 
2025-01-04 00:00 UT   10 20 16.8   +16 43 44     1.723    2.495  132.4   16.9   286   10.0 


    Terminology:
            
    delta:  distance between minor planet and earth in AU
    radius: distance between minor planet and sun in AU
    magn:   magnitude (brightness) estimate    
    ra:     right ascension in hours (24h = 360deg)
    dec:    declination in degrees
    elong:  elongation in degrees (angle sun-earth-minor planet)    
    phase:  phase angle in degrees (angle sun-minor planet-earth)        
    AU:     Astronomical Unit (mean distance between earth and sun: 149597870.7 km
    

Orbital elements provided by the MPC (Minor Planet Center).
Calculations by a modified version of AAPlus, a C# implementation of the AA+ project by PJ Naughter from the algorithms presented in the book "Astronomical Algorithms" by Jean Meeus.
NGC2000 dso catalog and star labels from VizieR as provided by the Strasbourg astronomical Data Center.
Tycho2 catalog from the ESO archive.